Location: Proctor
(47.8934°N, 114.3048°W)
Time: 04:14:34
(UTC+00:00)

M-CUBED/EXP-1 PRIME - Visible Passes

Search period start: 29 June 2022 00:00
Search period end: 09 July 2022 00:00
Orbit: 423 x 634 km, 101.7° (Epoch: 28 June)

Date Brightness Start Highest point End Pass type
(mag) Time Alt. Az. Time Alt. Az. Time Alt. Az.
29 Jun ? 08:29:17 45° SE 08:30:08 72° ENE 08:33:28 10° NNW visible
30 Jun ? 08:18:02 32° ESE 08:19:08 48° ENE 08:22:23 10° N visible
30 Jun ? 09:53:17 11° W 09:53:22 11° W 09:54:31 10° WNW visible
01 Jul ? 08:06:47 23° ESE 08:08:09 33° ENE 08:11:14 10° N visible
01 Jul ? 09:42:01 16° WSW 09:42:12 16° W 09:44:23 10° WNW visible
02 Jul ? 07:55:30 16° ESE 07:57:11 24° ENE 08:00:00 10° N visible
02 Jul ? 09:30:45 23° WSW 09:31:03 23° W 09:33:48 10° NW visible
03 Jul ? 07:44:14 12° E 07:46:15 18° ENE 07:48:40 10° NNE visible
03 Jul ? 09:19:29 31° WSW 09:19:55 33° WSW 09:23:01 10° NW visible
04 Jul ? 07:33:31 10° E 07:35:19 14° NE 07:37:10 10° NNE visible
04 Jul ? 09:08:11 42° SW 09:08:48 49° WSW 09:12:08 10° NNW visible
05 Jul ? 07:23:37 10° ENE 07:24:25 11° NE 07:25:12 10° NE visible
05 Jul ? 08:56:54 48° S 08:57:42 74° WSW 09:01:10 10° NNW visible
06 Jul ? 08:45:36 41° SE 08:46:38 75° ENE 08:50:07 10° NNW visible
07 Jul ? 08:34:18 31° SE 08:35:34 51° ENE 08:39:00 10° N visible
07 Jul ? 10:09:32 12° W 10:09:50 12° W 10:11:10 10° WNW visible
08 Jul ? 08:22:58 23° ESE 08:24:32 36° ENE 08:27:49 10° N visible
08 Jul ? 09:58:12 16° WSW 09:58:36 17° W 10:00:56 10° NW visible
